Home > Weather > Lomé > Past weeks

Flag for Togo Past Weather in Lomé, Togo — Yesterday and Last 2 Weeks

Now
79 °F

Scattered clouds.


Feels Like: 82 °F
Forecast: N/A
Wind: 15 mph from Southwest

Location: Lome Airport

Current Time: Jul 25, 2016 at 5:57:09 PM

Latest Report: Jul 25, 2016 at 5:30 PM


Visibility: N/A

Pressure: 29.86 "Hg

Humidity: 84%

Dew Point: 73 °F

Location of LoméLocation

Past Weather in Lomé — Graph

°F

Lomé Temperature Yesterday

Maximum temperature yesterday: 84 °F (at 1:00 PM)
Minimum temperature yesterday: 75 °F (at 3:30 AM)
Average temperature yesterday: 78 °F

High & Low Weather Summary for the Past Weeks

 TemperatureHumidityPressure
High86 °F (Jul 16, 11:30 AM)100% (Jul 10, 8:00 PM)30.01 "Hg (Jul 10, 8:00 PM)
Low75 °F (Jul 12, 4:30 AM)66% (Jul 12, 1:30 PM)29.83 "Hg (Jul 16, 3:00 PM)
Average79 °F87%29.94 "Hg
* Reported Jul 10 4:00 PM — Jul 25 4:30 PM, Lomé, Weather by CustomWeather, © 2016

Note: Actual official high and low records may vary slightly from our data, if they occured in-between our weather recording intervals... More about our weather records

Advertising

Lomé Weather History for the Previous 24 Hours

Scroll right to see more
 ConditionsComfort  
Time TempWeatherWind HumidityBarometerVisibility
4:30 PM
Mon, Jul 25
81 °FPassing clouds.18 mph79%29.86 "HgN/A
4:00 PM81 °FPassing clouds.20 mph79%29.86 "HgN/A
3:30 PM79 °FPassing clouds.18 mph84%29.86 "HgN/A
3:00 PM81 °FScattered clouds.20 mph79%29.86 "HgN/A
2:00 PM82 °FScattered clouds.18 mph74%29.86 "HgN/A
1:30 PM84 °FPassing clouds.17 mph70%29.89 "HgN/A
1:00 PM82 °FPassing clouds.16 mph74%29.89 "HgN/A
12:30 PM81 °FScattered clouds.15 mph79%29.92 "Hg5 mi
12:00 PM82 °FScattered clouds.16 mph74%29.92 "HgN/A
11:30 AM82 °FScattered clouds.14 mph74%29.95 "HgN/A
11:00 AM82 °FScattered clouds.13 mph74%29.95 "HgN/A
10:30 AM81 °FScattered clouds.12 mph79%29.95 "Hg5 mi
10:00 AM81 °FScattered clouds.7 mph79%29.98 "Hg5 mi
9:30 AM79 °FScattered clouds.7 mph84%29.98 "Hg5 mi
9:00 AM77 °FScattered clouds.8 mph89%29.95 "Hg5 mi
8:30 AM77 °FScattered clouds.7 mph89%29.95 "Hg5 mi
8:00 AM77 °FScattered clouds.9 mph89%29.95 "Hg5 mi
7:30 AM75 °FScattered clouds.10 mph94%29.92 "Hg5 mi
7:00 AM75 °FScattered clouds.8 mph94%29.92 "Hg5 mi
6:30 AM75 °FPassing clouds.8 mph94%29.92 "Hg5 mi
6:00 AM75 °FPassing clouds.8 mph94%29.89 "Hg5 mi
5:30 AM75 °FPassing clouds.7 mph94%29.92 "Hg5 mi
5:00 AM75 °FPassing clouds.7 mph94%29.89 "HgN/A
4:30 AM75 °FPassing clouds.8 mph94%29.89 "HgN/A
4:00 AM75 °FPassing clouds.9 mph94%29.89 "HgN/A
3:30 AM75 °FPassing clouds.9 mph94%29.89 "HgN/A
3:00 AM75 °FPassing clouds.9 mph94%29.89 "HgN/A
2:30 AM75 °FPassing clouds.12 mph94%29.92 "HgN/A
2:00 AM75 °FPassing clouds.9 mph94%29.92 "HgN/A
1:30 AM75 °FPassing clouds.10 mph94%29.92 "HgN/A
1:00 AM75 °FPassing clouds.10 mph94%29.95 "HgN/A
12:30 AM75 °FPassing clouds.8 mph94%29.95 "HgN/A
12:00 AM75 °FPassing clouds.8 mph94%29.95 "HgN/A
11:30 PM
Sun, Jul 24
75 °FPassing clouds.7 mph94%29.95 "HgN/A
11:00 PM75 °FPassing clouds.7 mph94%29.98 "HgN/A
10:30 PM75 °FPassing clouds.8 mph94%29.98 "HgN/A
10:00 PM75 °FPassing clouds.7 mph94%29.98 "HgN/A
9:30 PM75 °FPassing clouds.8 mph94%29.98 "HgN/A
9:00 PM77 °FPartly cloudy.8 mph94%29.95 "HgN/A
8:30 PM77 °FPartly cloudy.7 mph89%29.95 "HgN/A
8:00 PM77 °FPassing clouds.9 mph89%29.95 "HgN/A
7:30 PM77 °FPassing clouds.10 mph89%29.92 "HgN/A
7:00 PM77 °FPassing clouds.13 mph89%29.92 "HgN/A
6:30 PM77 °FPassing clouds.12 mph89%29.92 "HgN/A
6:00 PM79 °FScattered clouds.14 mph79%29.89 "HgN/A
5:30 PM79 °FScattered clouds.10 mph84%29.89 "HgN/A
5:00 PM84 °FScattered clouds.7 mph66%29.89 "HgN/A
Weather by CustomWeather, © 2016

See weather overviewHow to use our weather pages